sat.trackr.live / text

‹ back to catalog

STARLINK-11588 [DTC]

NORAD 63319 · 2025-057N

PAYLOAD ACTIVE UNKNOWN

§ Identity

Operator
Country
US
Launch date
2025-03-18
Launch site
AFETR
Launch vehicle
Mass (kg)
RCS (m²)

Purposes: comms

External: N2YO · Heavens-Above · Gunter

§ Orbital elements

Epoch: 2026-05-24T10:45:27.787392Z

Period
91.67 min
Inclination
43.0006°
Eccentricity
0.0001373
Mean motion
15.70853433 rev/d
Perigee alt
355.5 km
Apogee alt
357.4 km
Semi-major
6,734.6 km
B*
1.1725e-3
RAAN
167.7745°
Arg perigee
255.6769°
Mean anomaly
104.3946°
Rev number
6,909

§ Raw data

STARLINK-11588 [DTC]1 63319U 25057N   26144.44823828  .00152877  00000+0  11725-2 0  99942 63319  43.0006 167.7745 0001373 255.6769 104.3946 15.70853433 69098

JSON: /api/v1/satellites/63319 · /tle

For live sub-satellite position, see the globe view (requires WebGL).

§ Visibility from observer

Set your observer location to see the next 7 days of passes ≥ 10°. The values pass through the URL so the page stays shareable.

No JS? Fill the form by hand. The geolocation button needs JavaScript.